This is the latest recevied weather packets stored in our database for station/object KQ4UWH. If no packets are shown the sender has not sent any weather packets the latest 10 day(s).
| Time | Temp. | Humidity | Pressure | Rain* | Wind** | Luminosity | Snow |
|---|---|---|---|---|---|---|---|
| 1777727510 | 11.67° C | 82% | 1239.7 hPa | 0 mm | - | 104 W/m² | - |
| 1777727207 | 11.67° C | 82% | 1239.7 hPa | 0 mm | - | 82 W/m² | - |
| 1777726905 | 11.67° C | 85% | 1239.7 hPa | 0 mm | - | 71 W/m² | - |
| 1777726601 | 11.11° C | 89% | 1239.7 hPa | 0 mm | - | 84 W/m² | - |
| 1777726298 | 11.11° C | 91% | 1239.7 hPa | 0 mm | - | 72 W/m² | - |
| 1777725995 | 11.11° C | 91% | 1239.7 hPa | 0 mm | - | 52 W/m² | - |
| 1777725692 | 10.56° C | 90% | 1239.7 hPa | 0 mm | - | 41 W/m² | - |
| 1777725390 | 10.56° C | 92% | 1239.7 hPa | 0 mm | - | 37 W/m² | - |
| 1777725087 | 10.56° C | 91% | 1239.7 hPa | 0 mm | - | 64 W/m² | - |
| 1777724784 | 10.56° C | 90% | 1239.7 hPa | 0 mm | - | 31 W/m² | - |
| 1777724480 | 11.11° C | 89% | 1239.7 hPa | 0 mm | - | 22 W/m² | - |
| 1777724179 | 11.11° C | 85% | 1239.7 hPa | 0 mm | - | 20 W/m² | - |
| 1777723876 | 11.11° C | 85% | 1239.7 hPa | 0 mm | - | 35 W/m² | - |
| 1777723572 | 11.11° C | 85% | 1239.7 hPa | 0 mm | - | 26 W/m² | - |
| 1777723269 | 11.11° C | 85% | 1239.7 hPa | 0 mm | - | 14 W/m² | - |
| 1777722967 | 11.11° C | 85% | 1239.7 hPa | 0 mm | - | 10 W/m² | - |
| 1777722662 | 11.11° C | 87% | 1239.7 hPa | 0 mm | - | 8 W/m² | - |
| 1777722359 | 11.11° C | 90% | 1239.7 hPa | 0 mm | - | 7 W/m² | - |
| 1777722056 | 11.11° C | 93% | 1239.7 hPa | 0 mm | - | 6 W/m² | - |
| 1777721753 | 11.11° C | 91% | 1239.7 hPa | 0 mm | - | 6 W/m² | - |
| 1777721452 | 11.11° C | 91% | 1239.7 hPa | 0 mm | - | 13 W/m² | - |
| 1777721149 | 11.11° C | 89% | 1239.7 hPa | 0 mm | - | 14 W/m² | - |
| 1777720847 | 11.11° C | 88% | 1239.7 hPa | 0 mm | - | 12 W/m² | - |
| 1777720544 | 11.11° C | 89% | 1239.7 hPa | 0 mm | - | 4 W/m² | - |
| 1777720241 | 11.11° C | 89% | 1239.7 hPa | 0 mm | - | 4 W/m² | - |
* Rain latest hour (hover to see other rain measurements)
** Current wind speed in m/s (hover to see current wind gust speed)